Location: Unspecified
(0.0000°N, 0.0000°E)
Time: 06:34:48
(UTC+00:00)

Transit 2A Rocket - Pass Details

Date: 25 November 2019
Orbit: 594 x 909 km, 66.7° (Epoch: 11 December)

Event Time Altitude Azimuth Distance (km) Brightness Sun altitude
Rises 18:05:13 0° 192° (SSW) 3,377 8.8 -4.3°
Reaches altitude 10° 18:07:49 10° 187° (S) 2,395 8.0 -4.9°
Maximum altitude 18:13:11 55° 110° (ESE) 911 5.2 -6.1°
Drops below altitude 10° 18:18:02 10° 33° (NNE) 2,178 6.9 -7.3°
Enters shadow 18:19:51 - 29° (NNE) 2,870 7.5 -7.7°
Sets 18:20:18 0° 29° (NNE) 3,045 - -7.8°
